Tracking 35274 objects as of 12-Sep-2026
HD Live streaming from Space Station
objects crossing your sky now

THOR ABLESTAR DEB


THOR ABLESTAR DEB is no longer on orbit


NORAD ID: 462
Int'l Code: 1961-015EY
Launch date: June 29, 1961
Source: United States (US)
Launch site: AIR FORCE EASTERN TEST RANGE (AFETR)
Decay date: 2001-04-01

Note: This is SATELLITE DEBRIS
Your satellite tracking list
Your tracking list is empty




NASA's NSSDC Master Catalog

Two Line Element Set (TLE):
1 00462U 61015EY  01090.97698689 +.09331192 +18615-0 +33183-1 0  9995
2 00462 067.5494 292.6767 0012757 286.9862 078.4969 15.95351679063745
Source of the keplerian elements: AFSPC